Date String (YYYY-MM-DD hh:mm:ss) UTC,Instrument flags,Ambient pressure (hPa),Sample flow (lpm),Bypass flow (lpm),Sample temperature (°C),Ambient temperature (°C),ASC tube jacket temperature (°C),LED temperature (°C),Box temperature (°C),Sample RH (%),Span deviation,Mass concentration (μg/m³),Mass concentration (μg/m³),Mass concentration (μg/m³)
DateTimeUTC,F1_M11,P_M11,Q1_M11,Q2_M11,T1_M11,T2_M11,T3_M11,T4_M11,T5_M11,U1_M11,ZSPAN_M11,X0_M11,X2_M11,X1_M11
2022-01-09 09:00:00,,0833.1,5.00,0.00,22.3,21.6,00.0,31.4,24.0,12.6,0000.0,0004.97,0001.85,0001.43
2022-01-09 09:01:00,,0833.0,5.01,0.00,22.3,21.5,00.0,31.4,23.9,12.6,0000.0,0004.98,0001.88,0001.43
2022-01-09 09:02:00,,0833.1,5.00,0.00,22.2,21.5,00.0,31.4,23.9,12.6,0000.0,0004.19,0001.86,0001.42
2022-01-09 09:03:00,,0833.1,5.00,0.00,22.2,21.4,00.0,31.3,23.9,12.6,0000.0,0003.60,0001.86,0001.43
2022-01-09 09:04:00,,0833.0,5.00,0.00,22.2,21.4,00.0,31.3,23.9,12.6,0000.0,0003.54,0001.82,0001.42
2022-01-09 09:05:00,,0833.1,5.00,0.00,22.2,21.4,00.0,31.3,23.8,12.6,0000.0,0003.67,0001.82,0001.42
2022-01-09 09:06:00,,0833.1,5.01,0.00,22.2,21.4,00.0,31.3,23.8,12.6,0000.0,0003.97,0001.80,0001.41
2022-01-09 09:07:00,,0833.1,4.99,0.00,22.2,22.0,00.0,31.3,24.0,12.5,0000.0,0004.39,0001.81,0001.42
2022-01-09 09:08:00,,0833.1,5.00,0.00,22.4,22.8,00.0,31.4,24.3,12.4,0000.0,0004.22,0001.79,0001.41
2022-01-09 09:09:00,,0833.1,5.00,0.00,22.5,23.1,00.0,31.4,24.5,12.2,0000.0,0004.40,0001.77,0001.39
2022-01-09 09:10:00,,0833.1,5.00,0.00,22.5,22.8,00.0,31.4,24.4,12.1,0000.0,0004.43,0001.81,0001.38
2022-01-09 09:11:00,,0833.1,4.99,0.00,22.5,22.6,00.0,31.4,24.4,12.1,0000.0,0003.92,0001.77,0001.37
2022-01-09 09:12:00,,0833.1,5.00,0.00,22.5,22.4,00.0,31.4,24.3,12.0,0000.0,0003.96,0001.76,0001.37
2022-01-09 09:13:00,,0833.1,5.00,0.00,22.5,22.3,00.0,31.4,24.3,12.0,0000.0,0004.00,0001.76,0001.37
2022-01-09 09:14:00,,0833.2,4.99,0.00,22.5,22.1,00.0,31.4,24.2,12.0,0000.0,0004.59,0001.76,0001.37
2022-01-09 09:15:00,,0833.2,5.01,0.00,22.5,22.0,00.0,31.4,24.2,12.0,0000.0,0004.61,0001.76,0001.36
2022-01-09 09:16:00,,0833.2,4.99,0.00,22.4,21.9,00.0,31.4,24.2,12.0,0000.0,0004.38,0001.75,0001.35
2022-01-09 09:17:00,,0833.1,5.00,0.00,22.4,21.8,00.0,31.4,24.2,12.0,0000.0,0004.06,0001.74,0001.34
2022-01-09 09:18:00,,0833.2,5.00,0.00,22.4,21.7,00.0,31.4,24.1,12.0,0000.0,0004.18,0001.73,0001.34
2022-01-09 09:19:00,,0833.2,5.01,0.00,22.4,21.7,00.0,31.4,24.1,12.1,0000.0,0004.71,0001.72,0001.34
2022-01-09 09:20:00,,0833.1,5.00,0.00,22.4,21.6,00.0,31.4,24.1,12.1,0000.0,0004.57,0001.73,0001.34
2022-01-09 09:21:00,,0833.2,5.00,0.00,22.3,21.6,00.0,31.4,24.1,12.2,0000.0,0006.07,0001.68,0001.33
2022-01-09 09:22:00,,0833.2,4.99,0.00,22.3,21.6,00.0,31.4,24.0,12.2,0000.0,0006.20,0001.66,0001.32
2022-01-09 09:23:00,,0833.1,5.01,0.00,22.3,21.5,00.0,31.4,24.0,12.2,0000.0,0006.08,0001.64,0001.32
2022-01-09 09:24:00,,0833.1,4.99,0.00,22.3,21.5,00.0,31.3,24.0,12.3,0000.0,0006.07,0001.62,0001.31
2022-01-09 09:25:00,,0833.2,5.00,0.00,22.3,21.5,00.0,31.3,24.0,12.3,0000.0,0005.49,0001.61,0001.29
2022-01-09 09:26:00,,0833.2,5.01,0.00,22.2,21.4,00.0,31.3,23.9,12.3,0000.0,0005.47,0001.60,0001.28
2022-01-09 09:27:00,,0833.2,5.00,0.00,22.2,21.4,00.0,31.3,23.9,12.3,0000.0,0005.97,0001.59,0001.27
2022-01-09 09:28:00,,0833.1,4.99,0.00,22.3,21.9,00.0,31.3,24.0,12.3,0000.0,0005.96,0001.57,0001.27
2022-01-09 09:29:00,,0833.2,5.01,0.00,22.4,22.7,00.0,31.4,24.3,12.3,0000.0,0005.30,0001.54,0001.26
2022-01-09 09:30:00,,0833.1,4.99,0.00,22.5,23.2,00.0,31.4,24.5,12.3,0000.0,0004.70,0001.53,0001.26
2022-01-09 09:31:00,,0833.1,5.00,0.00,22.6,23.0,00.0,31.4,24.5,12.2,0000.0,0005.04,0001.52,0001.25
2022-01-09 09:32:00,,0833.1,5.00,0.00,22.6,22.8,00.0,31.4,24.5,12.2,0000.0,0003.51,0001.51,0001.25
2022-01-09 09:33:00,,0833.1,5.00,0.00,22.6,22.6,00.0,31.4,24.4,12.2,0000.0,0003.47,0001.53,0001.25
2022-01-09 09:34:00,,0833.0,5.00,0.00,22.6,22.4,00.0,31.5,24.4,12.2,0000.0,0003.52,0001.55,0001.26
2022-01-09 09:35:00,,0833.0,4.99,0.00,22.6,22.2,00.0,31.5,24.3,12.2,0000.0,0003.48,0001.57,0001.27
2022-01-09 09:36:00,,0833.0,5.01,0.00,22.5,22.1,00.0,31.5,24.3,12.3,0000.0,0003.49,0001.59,0001.27
2022-01-09 09:37:00,,0833.1,4.98,0.00,22.5,22.0,00.0,31.5,24.3,12.3,0000.0,0003.48,0001.59,0001.26
2022-01-09 09:38:00,,0833.0,5.00,0.00,22.5,21.9,00.0,31.5,24.3,12.3,0000.0,0003.18,0001.58,0001.26
2022-01-09 09:39:00,,0833.1,5.00,0.00,22.5,21.9,00.0,31.5,24.2,12.3,0000.0,0003.26,0001.61,0001.26
2022-01-09 09:40:00,,0833.0,4.99,0.00,22.5,21.8,00.0,31.5,24.2,12.3,0000.0,0003.42,0001.67,0001.26
2022-01-09 09:41:00,,0833.1,5.01,0.00,22.4,21.7,00.0,31.4,24.2,12.3,0000.0,0003.64,0001.72,0001.26
2022-01-09 09:42:00,,0833.0,4.99,0.00,22.4,21.7,00.0,31.4,24.2,12.3,0000.0,0003.24,0001.73,0001.27
2022-01-09 09:43:00,,0833.0,4.99,0.00,22.4,21.7,00.0,31.4,24.1,12.3,0000.0,0003.06,0001.71,0001.26
2022-01-09 09:44:00,,0833.0,4.99,0.00,22.4,21.6,00.0,31.4,24.1,12.3,0000.0,0003.40,0001.66,0001.25
2022-01-09 09:45:00,,0833.1,5.02,0.00,22.3,21.6,00.0,31.4,24.1,12.3,0000.0,0004.19,0001.62,0001.24
2022-01-09 09:46:00,,0833.1,4.99,0.00,22.3,21.5,00.0,31.4,24.0,12.3,0000.0,0004.15,0001.59,0001.23
2022-01-09 09:47:00,,0833.1,5.00,0.00,22.3,21.5,00.0,31.4,24.0,12.3,0000.0,0004.12,0001.56,0001.22
2022-01-09 09:48:00,,0833.0,4.99,0.00,22.3,21.5,00.0,31.4,24.0,12.3,0000.0,0004.18,0001.56,0001.22
2022-01-09 09:49:00,,0833.1,5.00,0.00,22.4,22.1,00.0,31.4,24.1,12.3,0000.0,0004.09,0001.58,0001.23
2022-01-09 09:50:00,,0833.0,5.00,0.00,22.5,22.8,00.0,31.4,24.4,12.1,0000.0,0003.93,0001.56,0001.22
2022-01-09 09:51:00,,0833.0,5.01,0.00,22.6,23.1,00.0,31.5,24.6,12.0,0000.0,0003.77,0001.50,0001.21
2022-01-09 09:52:00,,0833.0,5.01,0.00,22.6,22.9,00.0,31.5,24.6,12.0,0000.0,0003.58,0001.45,0001.19
2022-01-09 09:53:00,,0833.1,4.99,0.00,22.7,22.7,00.0,31.5,24.5,12.0,0000.0,0003.49,0001.39,0001.19
2022-01-09 09:54:00,,0833.1,5.01,0.00,22.6,22.5,00.0,31.5,24.5,12.0,0000.0,0005.22,0001.40,0001.21
2022-01-09 09:55:00,,0833.1,5.00,0.00,22.6,22.4,00.0,31.5,24.4,12.0,0000.0,0005.23,0001.42,0001.22
2022-01-09 09:56:00,,0833.1,4.99,0.00,22.6,22.2,00.0,31.5,24.4,12.0,0000.0,0003.99,0001.47,0001.23
2022-01-09 09:57:00,,0833.1,5.00,0.00,22.6,22.1,00.0,31.5,24.4,12.0,0000.0,0004.08,0001.52,0001.23
2022-01-09 09:58:00,,0833.1,5.00,0.00,22.6,22.0,00.0,31.5,24.3,12.1,0000.0,0004.11,0001.53,0001.23
2022-01-09 09:59:00,,0833.1,4.99,0.00,22.6,22.0,00.0,31.5,24.3,12.0,0000.0,0004.05,0001.54,0001.25
